sat.trackr.live / text

‹ back to catalog

COSMOS 2547 (705K)

NORAD 46805 · 2020-075A

PAYLOAD ACTIVE UNKNOWN

§ Identity

Operator
Country
CIS
Launch date
2020-10-25
Launch site
PLMSC
Launch vehicle
Mass (kg)
RCS (m²)

Purposes: earth_obs, nav

External: N2YO · Heavens-Above · Gunter

§ Orbital elements

Epoch: 2026-09-08T00:06:12.538656Z

Period
675.74 min
Inclination
64.6013°
Eccentricity
0.0008662
Mean motion
2.13099684 rev/d
Perigee alt
19,108.0 km
Apogee alt
19,152.2 km
Semi-major
25,508.2 km
B*
0.0000e+0
RAAN
189.7129°
Arg perigee
237.0472°
Mean anomaly
122.8533°
Rev number
4,567

§ Raw data

COSMOS 2547 (705K)1 46805U 20075A   26251.00431179 -.00000017  00000+0  00000+0 0  99952 46805  64.6013 189.7129 0008662 237.0472 122.8533  2.13099684 45677

JSON: /api/v1/satellites/46805 · /tle

For live sub-satellite position, see the globe view (requires WebGL).

§ Visibility from observer

Set your observer location to see the next 7 days of passes ≥ 10°. The values pass through the URL so the page stays shareable.

No JS? Fill the form by hand. The geolocation button needs JavaScript.